IGO664E VOMM-VECC

Flight info

Callsign IGO664E
Flight time 1h 57m
Altitude 35000
Route VATMO2B VATMO Q10 GOLAN GOLAN2A
Aircraft A21N/M-SDE2E3FGHIJ1RWXY/LB1

Departure

Time 2026-04-27 05:56
Airport Chennai International Airport (VOMM)

Arrival

Time 2026-04-27 07:53
Airport Netaji Subhash Chandra Bose International Airport (VECC)
Time Latitude Longitude Altitude Speed Heading
2026-04-27 05:33 12.98505 80.16708 61 ft 0 kts 160°
2026-04-27 05:46 12.98508 80.16706 88 ft 3 kts 159°
2026-04-27 05:46 12.98528 80.16699 55 ft 4 kts 155°
2026-04-27 05:47 12.98548 80.16684 58 ft 5 kts 117°
2026-04-27 05:47 12.98551 80.16660 55 ft 4 kts 73°
2026-04-27 05:47 12.98549 80.16654 56 ft 2 kts 70°
2026-04-27 05:51 12.98551 80.16658 55 ft 3 kts 70°
2026-04-27 05:51 12.98564 80.16694 53 ft 8 kts 69°
2026-04-27 05:51 12.98602 80.16754 58 ft 13 kts 35°
2026-04-27 05:52 12.98700 80.16740 61 ft 16 kts 340°
2026-04-27 05:52 12.98786 80.16801 57 ft 17 kts 66°
2026-04-27 05:52 12.98830 80.16918 59 ft 18 kts 71°
2026-04-27 05:52 12.98875 80.17044 60 ft 19 kts 69°
2026-04-27 05:53 12.98923 80.17172 59 ft 20 kts 68°
2026-04-27 05:53 12.98979 80.17292 56 ft 18 kts 66°
2026-04-27 05:53 12.99012 80.17383 55 ft 0 kts 70°
2026-04-27 05:54 12.99045 80.17468 59 ft 26 kts 68°
2026-04-27 05:54 12.99114 80.17646 58 ft 23 kts 68°
2026-04-27 05:55 12.99230 80.17678 58 ft 19 kts 339°
2026-04-27 05:55 12.99287 80.17618 61 ft 13 kts 254°
2026-04-27 05:55 12.99252 80.17527 62 ft 19 kts 248°
2026-04-27 05:55 12.99126 80.17194 56 ft 84 kts 248°
2026-04-27 05:56 12.98843 80.16437 55 ft 140 kts 249°
2026-04-27 05:56 12.98449 80.15380 146 ft 170 kts 245°
2026-04-27 05:56 12.97997 80.14247 572 ft 174 kts 245°
2026-04-27 05:56 12.97580 80.13061 979 ft 185 kts 252°
2026-04-27 05:57 12.97681 80.11692 1310 ft 208 kts 293°
2026-04-27 05:57 12.98583 80.10463 1786 ft 224 kts 304°
2026-04-27 05:57 12.99827 80.09389 2123 ft 252 kts 336°
2026-04-27 05:57 13.01628 80.09153 2524 ft 275 kts 11°
2026-04-27 05:58 13.03367 80.09978 3173 ft 280 kts 41°
2026-04-27 05:58 13.04777 80.11330 3953 ft 280 kts 44°
2026-04-27 05:58 13.06326 80.12540 4680 ft 282 kts 25°
2026-04-27 05:58 13.08191 80.13130 5418 ft 280 kts 12°
2026-04-27 05:59 13.10105 80.13493 6182 ft 279 kts 10°
2026-04-27 05:59 13.12023 80.13806 6917 ft 279 kts 10°
2026-04-27 05:59 13.13941 80.14103 7596 ft 280 kts 10°
2026-04-27 05:59 13.15874 80.14395 8253 ft 282 kts 10°
2026-04-27 06:00 13.19698 80.15298 9525 ft 283 kts 30°
2026-04-27 06:00 13.21207 80.16588 10020 ft 288 kts 53°
2026-04-27 06:00 13.22149 80.18446 10272 ft 303 kts 70°
2026-04-27 06:01 13.22831 80.20545 10505 ft 318 kts 71°
2026-04-27 06:01 13.23528 80.22741 10890 ft 327 kts 71°
2026-04-27 06:01 13.24263 80.24966 11439 ft 331 kts 70°
2026-04-27 06:01 13.25022 80.27202 12020 ft 333 kts 70°
2026-04-27 06:02 13.25796 80.29456 12589 ft 336 kts 70°
2026-04-27 06:02 13.26580 80.31729 13152 ft 340 kts 70°
2026-04-27 06:02 13.27366 80.33996 13709 ft 343 kts 69°
2026-04-27 06:02 13.28170 80.36312 14206 ft 346 kts 70°
2026-04-27 06:03 13.28980 80.38648 14715 ft 348 kts 70°
2026-04-27 06:03 13.29787 80.40984 15223 ft 351 kts 70°
2026-04-27 06:03 13.30618 80.43352 15738 ft 354 kts 69°
2026-04-27 06:03 13.31534 80.45742 16250 ft 356 kts 68°
2026-04-27 06:04 13.32446 80.48080 16742 ft 359 kts 68°
2026-04-27 06:04 13.33381 80.50471 17239 ft 362 kts 69°
2026-04-27 06:04 13.34324 80.52883 17731 ft 365 kts 69°
2026-04-27 06:04 13.35269 80.55308 18188 ft 368 kts 69°
2026-04-27 06:05 13.36221 80.57759 18595 ft 370 kts 69°
2026-04-27 06:05 13.37179 80.60225 18998 ft 373 kts 69°
2026-04-27 06:05 13.38146 80.62705 19410 ft 376 kts 69°
2026-04-27 06:05 13.39121 80.65205 19812 ft 379 kts 69°
2026-04-27 06:06 13.40102 80.67726 20194 ft 382 kts 69°
2026-04-27 06:06 13.41091 80.70277 20571 ft 386 kts 69°
2026-04-27 06:06 13.42088 80.72843 20938 ft 389 kts 69°
2026-04-27 06:06 13.43092 80.75434 21310 ft 392 kts 69°
2026-04-27 06:07 13.44105 80.78053 21671 ft 396 kts 69°
2026-04-27 06:07 13.45126 80.80689 22026 ft 399 kts 68°
2026-04-27 06:07 13.46154 80.83342 22367 ft 402 kts 68°
2026-04-27 06:07 13.47195 80.86026 22720 ft 405 kts 68°
2026-04-27 06:08 13.48241 80.88723 23069 ft 408 kts 68°
2026-04-27 06:08 13.49292 80.91433 23403 ft 411 kts 68°
2026-04-27 06:08 13.50350 80.94169 23689 ft 414 kts 68°
2026-04-27 06:08 13.51416 80.96929 23986 ft 417 kts 68°
2026-04-27 06:09 13.52497 80.99702 24282 ft 419 kts 68°
2026-04-27 06:09 13.53581 81.02489 24586 ft 421 kts 68°
2026-04-27 06:09 13.54668 81.05292 24880 ft 423 kts 68°
2026-04-27 06:09 13.55755 81.08108 25171 ft 426 kts 68°
2026-04-27 06:10 13.56847 81.10948 25463 ft 428 kts 68°
2026-04-27 06:10 13.57942 81.13795 25749 ft 430 kts 68°
2026-04-27 06:10 13.59049 81.16665 26030 ft 433 kts 68°
2026-04-27 06:10 13.60162 81.19548 26303 ft 435 kts 68°
2026-04-27 06:11 13.61285 81.22444 26596 ft 437 kts 68°
2026-04-27 06:11 13.62417 81.25353 26866 ft 440 kts 68°
2026-04-27 06:11 13.63552 81.28279 27142 ft 442 kts 68°
2026-04-27 06:11 13.64686 81.31223 27401 ft 444 kts 68°
2026-04-27 06:12 13.65825 81.34188 27671 ft 446 kts 68°
2026-04-27 06:12 13.66968 81.37166 27932 ft 449 kts 68°
2026-04-27 06:12 13.68120 81.40158 28189 ft 451 kts 67°
2026-04-27 06:12 13.69445 81.43081 28434 ft 452 kts 59°
2026-04-27 06:13 13.71250 81.45722 28663 ft 452 kts 47°
2026-04-27 06:13 13.73506 81.47936 28887 ft 452 kts 37°
2026-04-27 06:13 13.75985 81.49934 29137 ft 454 kts 36°
2026-04-27 06:13 13.78500 81.51912 29383 ft 456 kts 36°
2026-04-27 06:14 13.81019 81.53904 29624 ft 457 kts 36°
2026-04-27 06:14 13.83533 81.55915 29862 ft 459 kts 36°
2026-04-27 06:14 13.86049 81.57943 30064 ft 461 kts 36°
2026-04-27 06:14 13.88577 81.59986 30252 ft 463 kts 36°
2026-04-27 06:15 13.91118 81.62035 30445 ft 464 kts 36°
2026-04-27 06:15 13.93669 81.64085 30641 ft 466 kts 36°
2026-04-27 06:15 13.96224 81.66142 30832 ft 468 kts 36°
2026-04-27 06:15 13.98793 81.68221 31021 ft 470 kts 36°
2026-04-27 06:16 14.01364 81.70301 31198 ft 471 kts 36°
2026-04-27 06:16 14.03946 81.72392 31389 ft 473 kts 36°
2026-04-27 06:16 14.06537 81.74487 31556 ft 474 kts 36°
2026-04-27 06:16 14.09134 81.76587 31736 ft 476 kts 36°
2026-04-27 06:17 14.11742 81.78699 31911 ft 477 kts 36°
2026-04-27 06:17 14.14349 81.80819 32108 ft 478 kts 36°
2026-04-27 06:17 14.16961 81.82936 32319 ft 478 kts 36°
2026-04-27 06:17 14.19574 81.85044 32521 ft 478 kts 36°
2026-04-27 06:18 14.22195 81.87160 32720 ft 478 kts 36°
2026-04-27 06:18 14.24790 81.89264 32922 ft 478 kts 36°
2026-04-27 06:18 14.27403 81.91383 33118 ft 478 kts 36°
2026-04-27 06:18 14.30019 81.93499 33294 ft 478 kts 36°
2026-04-27 06:19 14.32640 81.95619 33470 ft 478 kts 36°
2026-04-27 06:19 14.35262 81.97738 33639 ft 479 kts 36°
2026-04-27 06:19 14.37873 81.99857 33798 ft 479 kts 36°
2026-04-27 06:19 14.40495 82.01990 33940 ft 479 kts 36°
2026-04-27 06:20 14.43114 82.04118 34077 ft 480 kts 36°
2026-04-27 06:20 14.45740 82.06247 34214 ft 480 kts 36°
2026-04-27 06:20 14.48360 82.08371 34341 ft 480 kts 36°
2026-04-27 06:20 14.50985 82.10504 34465 ft 480 kts 36°
2026-04-27 06:21 14.53609 82.12637 34593 ft 480 kts 35°
2026-04-27 06:21 14.56202 82.14743 34721 ft 480 kts 35°
2026-04-27 06:21 14.58832 82.16880 34828 ft 481 kts 35°
2026-04-27 06:21 14.61447 82.19010 34855 ft 479 kts 36°
2026-04-27 06:22 14.66714 82.23304 34827 ft 479 kts 35°
2026-04-27 06:22 14.71923 82.27536 34820 ft 479 kts 35°
2026-04-27 06:23 14.77142 82.31790 34820 ft 480 kts 35°
2026-04-27 06:23 14.82386 82.36067 34821 ft 480 kts 35°
2026-04-27 06:24 14.87633 82.40342 34815 ft 480 kts 35°
2026-04-27 06:24 14.92866 82.44617 34820 ft 479 kts 35°
2026-04-27 06:25 14.98097 82.48893 34819 ft 479 kts 35°
2026-04-27 06:25 15.03332 82.53171 34817 ft 479 kts 35°
2026-04-27 06:26 15.08563 82.57447 34818 ft 479 kts 35°
2026-04-27 06:26 15.13795 82.61731 34818 ft 479 kts 35°
2026-04-27 06:27 15.19030 82.66017 34819 ft 480 kts 35°
2026-04-27 06:27 15.23381 82.69590 34817 ft 480 kts 35°
2026-04-27 06:28 15.28604 82.73869 34820 ft 480 kts 35°
2026-04-27 06:28 15.33828 82.78160 34821 ft 479 kts 35°
2026-04-27 06:29 15.39058 82.82454 34817 ft 479 kts 35°
2026-04-27 06:29 15.44270 82.86766 34816 ft 480 kts 36°
2026-04-27 06:30 15.49441 82.91139 34818 ft 480 kts 36°
2026-04-27 06:30 15.54611 82.95518 34817 ft 480 kts 36°
2026-04-27 06:31 15.59789 82.99888 34819 ft 480 kts 36°
2026-04-27 06:31 15.64967 83.04266 34815 ft 480 kts 36°
2026-04-27 06:32 15.70138 83.08649 34813 ft 480 kts 36°
2026-04-27 06:32 15.75315 83.13027 34815 ft 480 kts 36°
2026-04-27 06:33 15.80472 83.17407 34810 ft 480 kts 36°
2026-04-27 06:33 15.85647 83.21791 34812 ft 480 kts 35°
2026-04-27 06:34 15.90818 83.26173 34813 ft 480 kts 35°
2026-04-27 06:34 15.95992 83.30560 34813 ft 480 kts 35°
2026-04-27 06:35 16.01154 83.34957 34812 ft 479 kts 35°
2026-04-27 06:35 16.06316 83.39338 34814 ft 479 kts 35°
2026-04-27 06:36 16.11473 83.43736 34806 ft 479 kts 35°
2026-04-27 06:36 16.16626 83.48142 34814 ft 479 kts 35°
2026-04-27 06:37 16.21759 83.52491 34809 ft 479 kts 35°
2026-04-27 06:37 16.26914 83.56892 34812 ft 479 kts 35°
2026-04-27 06:38 16.32091 83.61308 34814 ft 479 kts 35°
2026-04-27 06:38 16.37249 83.65706 34815 ft 479 kts 35°
2026-04-27 06:39 16.42369 83.70072 34810 ft 479 kts 35°
2026-04-27 06:39 16.47521 83.74478 34808 ft 479 kts 35°
2026-04-27 06:40 16.52663 83.78884 34806 ft 479 kts 35°
2026-04-27 06:40 16.57817 83.83297 34806 ft 479 kts 35°
2026-04-27 06:41 16.62960 83.87703 34793 ft 478 kts 35°
2026-04-27 06:41 16.68098 83.92113 34795 ft 478 kts 35°
2026-04-27 06:42 16.73246 83.96517 34795 ft 479 kts 35°
2026-04-27 06:42 16.78383 84.00930 34799 ft 479 kts 35°
2026-04-27 06:43 16.83505 84.05329 34804 ft 479 kts 35°
2026-04-27 06:43 16.88659 84.09742 34799 ft 479 kts 34°
2026-04-27 06:44 16.93826 84.14127 34788 ft 479 kts 34°
2026-04-27 06:44 16.98989 84.18526 34803 ft 479 kts 34°
2026-04-27 06:45 17.04152 84.22926 34796 ft 479 kts 34°
2026-04-27 06:45 17.09316 84.27329 34790 ft 479 kts 34°
2026-04-27 06:46 17.14483 84.31736 34790 ft 479 kts 34°
2026-04-27 06:46 17.19644 84.36176 34788 ft 480 kts 34°
2026-04-27 06:47 17.24804 84.40605 34792 ft 480 kts 34°
2026-04-27 06:47 17.29976 84.45000 34786 ft 479 kts 34°
2026-04-27 06:48 17.35083 84.49363 34790 ft 479 kts 34°
2026-04-27 06:48 17.40250 84.53774 34793 ft 479 kts 34°
2026-04-27 06:49 17.45410 84.58168 34791 ft 479 kts 34°
2026-04-27 06:49 17.50580 84.62569 34788 ft 479 kts 34°
2026-04-27 06:50 17.55743 84.66975 34785 ft 478 kts 34°
2026-04-27 06:50 17.60898 84.71392 34787 ft 478 kts 34°
2026-04-27 06:51 17.66055 84.75797 34792 ft 479 kts 34°
2026-04-27 06:51 17.71212 84.80219 34790 ft 479 kts 34°
2026-04-27 06:52 17.76361 84.84649 34791 ft 479 kts 34°
2026-04-27 06:52 17.81525 84.89083 34787 ft 479 kts 34°
2026-04-27 06:53 17.86664 84.93510 34779 ft 479 kts 34°
2026-04-27 06:53 17.91820 84.97954 34779 ft 479 kts 34°
2026-04-27 06:54 17.96935 85.02366 34782 ft 479 kts 34°
2026-04-27 06:54 18.02078 85.06805 34781 ft 478 kts 34°
2026-04-27 06:55 18.07218 85.11251 34778 ft 479 kts 34°
2026-04-27 06:55 18.12367 85.15694 34778 ft 479 kts 34°
2026-04-27 06:56 18.17516 85.20150 34774 ft 479 kts 34°
2026-04-27 06:56 18.22663 85.24604 34770 ft 479 kts 34°
2026-04-27 06:57 18.27804 85.29060 34766 ft 479 kts 34°
2026-04-27 06:57 18.32949 85.33522 34760 ft 480 kts 34°
2026-04-27 06:58 18.40657 85.40227 34768 ft 480 kts 33°
2026-04-27 06:59 18.45823 85.44694 34757 ft 480 kts 33°
2026-04-27 06:59 18.50973 85.49176 34757 ft 480 kts 33°
2026-04-27 07:00 18.56130 85.53658 34751 ft 480 kts 33°
2026-04-27 07:00 18.61283 85.58153 34755 ft 481 kts 33°
2026-04-27 07:01 18.66434 85.62640 34756 ft 480 kts 33°
2026-04-27 07:01 18.71579 85.67129 34756 ft 480 kts 33°
2026-04-27 07:02 18.76722 85.71617 34756 ft 480 kts 33°
2026-04-27 07:02 18.81843 85.76095 34755 ft 480 kts 33°
2026-04-27 07:03 18.86987 85.80596 34751 ft 480 kts 33°
2026-04-27 07:03 18.92087 85.85054 34751 ft 481 kts 33°
2026-04-27 07:04 18.97285 85.89563 34757 ft 480 kts 33°
2026-04-27 07:04 19.02449 85.94002 34758 ft 480 kts 32°
2026-04-27 07:05 19.07621 85.98462 34757 ft 481 kts 32°
2026-04-27 07:05 19.12802 86.02937 34760 ft 481 kts 32°
2026-04-27 07:06 19.17982 86.07422 34761 ft 481 kts 32°
2026-04-27 07:06 19.23163 86.11909 34769 ft 481 kts 32°
2026-04-27 07:07 19.28339 86.16391 34758 ft 481 kts 32°
2026-04-27 07:07 19.33510 86.20872 34757 ft 481 kts 32°
2026-04-27 07:08 19.38684 86.25370 34761 ft 481 kts 32°
2026-04-27 07:08 19.43776 86.29790 34767 ft 481 kts 32°
2026-04-27 07:09 19.48948 86.34277 34755 ft 481 kts 32°
2026-04-27 07:09 19.54111 86.38778 34758 ft 481 kts 32°
2026-04-27 07:10 19.59277 86.43276 34749 ft 481 kts 32°
2026-04-27 07:10 19.64448 86.47784 34760 ft 481 kts 32°
2026-04-27 07:11 19.69626 86.52276 34751 ft 481 kts 32°
2026-04-27 07:11 19.74770 86.56752 34757 ft 481 kts 32°
2026-04-27 07:12 19.79100 86.60525 34747 ft 481 kts 32°
2026-04-27 07:12 19.84279 86.65029 34747 ft 481 kts 32°
2026-04-27 07:13 19.89454 86.69545 34746 ft 481 kts 32°
2026-04-27 07:13 19.94599 86.74027 34752 ft 481 kts 32°
2026-04-27 07:14 19.99773 86.78536 34745 ft 482 kts 32°
2026-04-27 07:14 20.04953 86.83064 34740 ft 482 kts 32°
2026-04-27 07:15 20.10003 86.87489 34749 ft 482 kts 32°
2026-04-27 07:15 20.15255 86.92080 34747 ft 482 kts 32°
2026-04-27 07:16 20.20434 86.96605 34735 ft 482 kts 32°
2026-04-27 07:16 20.25577 87.01117 34735 ft 482 kts 32°
2026-04-27 07:17 20.30745 87.05650 34733 ft 481 kts 32°
2026-04-27 07:17 20.35915 87.10194 34727 ft 481 kts 32°
2026-04-27 07:18 20.41093 87.14769 34721 ft 481 kts 32°
2026-04-27 07:18 20.46150 87.19210 34729 ft 481 kts 32°
2026-04-27 07:19 20.51356 87.23763 34733 ft 481 kts 32°
2026-04-27 07:19 20.56517 87.28315 34721 ft 482 kts 32°
2026-04-27 07:20 20.61696 87.32865 34718 ft 481 kts 32°
2026-04-27 07:20 20.66861 87.37420 34718 ft 482 kts 32°
2026-04-27 07:21 20.72026 87.41986 34713 ft 481 kts 32°
2026-04-27 07:21 20.77188 87.46542 34714 ft 481 kts 32°
2026-04-27 07:22 20.82292 87.51206 34712 ft 487 kts 37°
2026-04-27 07:22 20.87037 87.56398 34712 ft 489 kts 38°
2026-04-27 07:23 20.91742 87.61577 34711 ft 489 kts 38°
2026-04-27 07:23 20.96447 87.66731 34716 ft 489 kts 38°
2026-04-27 07:24 21.01194 87.71925 34718 ft 490 kts 38°
2026-04-27 07:24 21.05998 87.77212 34716 ft 491 kts 38°
2026-04-27 07:25 21.10731 87.82421 34710 ft 491 kts 38°
2026-04-27 07:25 21.15487 87.87664 34707 ft 491 kts 38°
2026-04-27 07:26 21.20276 87.92946 34708 ft 491 kts 38°
2026-04-27 07:26 21.25023 87.98195 34699 ft 491 kts 38°
2026-04-27 07:27 21.29737 88.03410 34581 ft 477 kts 38°
2026-04-27 07:27 21.32030 88.05951 34173 ft 470 kts 38°
2026-04-27 07:27 21.34294 88.08457 33674 ft 466 kts 38°
2026-04-27 07:27 21.36511 88.10907 33117 ft 462 kts 38°
2026-04-27 07:28 21.38737 88.13371 32588 ft 457 kts 38°
2026-04-27 07:28 21.40952 88.15821 32077 ft 453 kts 39°
2026-04-27 07:28 21.43128 88.18236 31575 ft 448 kts 39°
2026-04-27 07:28 21.45255 88.20607 31099 ft 443 kts 39°
2026-04-27 07:29 21.47409 88.23004 30619 ft 439 kts 40°
2026-04-27 07:29 21.49495 88.25322 30163 ft 434 kts 40°
2026-04-27 07:29 21.51610 88.27666 29690 ft 429 kts 41°
2026-04-27 07:29 21.53696 88.29863 29157 ft 421 kts 34°
2026-04-27 07:30 21.56100 88.31525 28598 ft 405 kts 18°
2026-04-27 07:30 21.58730 88.32486 28074 ft 394 kts
2026-04-27 07:30 21.61359 88.33227 27559 ft 390 kts
2026-04-27 07:30 21.63979 88.33952 27047 ft 387 kts
2026-04-27 07:31 21.66573 88.34691 26551 ft 384 kts
2026-04-27 07:31 21.69136 88.35437 26050 ft 381 kts 10°
2026-04-27 07:31 21.71682 88.36188 25584 ft 378 kts 10°
2026-04-27 07:31 21.74216 88.36939 25092 ft 375 kts 10°
2026-04-27 07:32 21.76722 88.37683 24629 ft 372 kts 11°
2026-04-27 07:32 21.79207 88.38421 24166 ft 370 kts 11°
2026-04-27 07:32 21.81683 88.39156 23716 ft 367 kts 11°
2026-04-27 07:32 21.84139 88.39885 23258 ft 365 kts 11°
2026-04-27 07:33 21.86572 88.40608 22748 ft 363 kts 11°
2026-04-27 07:33 21.88918 88.41306 22273 ft 360 kts 11°
2026-04-27 07:33 21.91326 88.42022 21799 ft 356 kts 11°
2026-04-27 07:33 21.93703 88.42730 21327 ft 353 kts 11°
2026-04-27 07:34 21.96067 88.43433 20872 ft 350 kts 11°
2026-04-27 07:34 21.98405 88.44129 20402 ft 347 kts 11°
2026-04-27 07:34 22.00714 88.44815 19976 ft 343 kts 11°
2026-04-27 07:34 22.03007 88.45498 19546 ft 340 kts 11°
2026-04-27 07:35 22.05278 88.46176 19124 ft 337 kts 11°
2026-04-27 07:35 22.07529 88.46847 18699 ft 334 kts 11°
2026-04-27 07:35 22.09762 88.47512 18285 ft 331 kts 11°
2026-04-27 07:35 22.11966 88.48169 17858 ft 327 kts 11°
2026-04-27 07:36 22.14146 88.48820 17390 ft 324 kts 11°
2026-04-27 07:36 22.16310 88.49466 16920 ft 321 kts 10°
2026-04-27 07:36 22.18461 88.50109 16443 ft 319 kts 10°
2026-04-27 07:36 22.20582 88.50742 15976 ft 317 kts 10°
2026-04-27 07:37 22.22708 88.51376 15520 ft 315 kts 10°
2026-04-27 07:37 22.23419 88.51589 15368 ft 314 kts
2026-04-27 07:37 22.25645 88.52254 14918 ft 311 kts
2026-04-27 07:38 22.27722 88.52876 14469 ft 309 kts
2026-04-27 07:38 22.29509 88.53325 14093 ft 304 kts
2026-04-27 07:38 22.31600 88.53590 13661 ft 301 kts 359°
2026-04-27 07:38 22.33680 88.53797 13218 ft 299 kts 359°
2026-04-27 07:39 22.35744 88.54001 12763 ft 297 kts 359°
2026-04-27 07:39 22.37793 88.54211 12320 ft 296 kts 359°
2026-04-27 07:39 22.39839 88.54421 11859 ft 294 kts 360°
2026-04-27 07:39 22.41867 88.54633 11410 ft 293 kts 360°
2026-04-27 07:40 22.43890 88.54846 10969 ft 291 kts 360°
2026-04-27 07:40 22.45906 88.55059 10537 ft 290 kts
2026-04-27 07:40 22.47909 88.55271 10107 ft 288 kts
2026-04-27 07:40 22.49903 88.55479 9688 ft 287 kts
2026-04-27 07:41 22.51878 88.55687 9257 ft 285 kts
2026-04-27 07:41 22.53857 88.55895 8801 ft 285 kts
2026-04-27 07:41 22.55821 88.56101 8352 ft 284 kts
2026-04-27 07:41 22.57789 88.56309 7916 ft 284 kts
2026-04-27 07:42 22.59756 88.56517 7487 ft 283 kts
2026-04-27 07:42 22.61716 88.56726 7071 ft 283 kts
2026-04-27 07:42 22.63665 88.56945 6723 ft 281 kts
2026-04-27 07:42 22.65605 88.57168 6347 ft 280 kts
2026-04-27 07:43 22.67543 88.57383 5925 ft 280 kts
2026-04-27 07:43 22.69468 88.57592 5483 ft 281 kts
2026-04-27 07:43 22.71404 88.57799 5096 ft 279 kts
2026-04-27 07:43 22.73336 88.57979 4708 ft 279 kts
2026-04-27 07:44 22.75267 88.58159 4322 ft 278 kts
2026-04-27 07:44 22.77188 88.58341 3919 ft 277 kts
2026-04-27 07:44 22.79118 88.58537 3476 ft 279 kts
2026-04-27 07:44 22.81057 88.58737 3052 ft 281 kts
2026-04-27 07:45 22.83004 88.58935 2614 ft 279 kts
2026-04-27 07:45 22.84926 88.59125 2190 ft 277 kts
2026-04-27 07:45 22.86811 88.59374 1980 ft 268 kts
2026-04-27 07:45 22.88600 88.59664 1930 ft 250 kts
2026-04-27 07:46 22.90211 88.59404 1918 ft 223 kts 331°
2026-04-27 07:46 22.91388 88.58398 1943 ft 216 kts 300°
2026-04-27 07:46 22.91894 88.56916 1959 ft 209 kts 268°
2026-04-27 07:46 22.91830 88.55356 1976 ft 204 kts 260°
2026-04-27 07:47 22.91667 88.53841 1978 ft 203 kts 259°
2026-04-27 07:47 22.91497 88.52306 1984 ft 207 kts 259°
2026-04-27 07:47 22.91171 88.50801 1977 ft 203 kts 243°
2026-04-27 07:47 22.90547 88.49445 1993 ft 202 kts 239°
2026-04-27 07:48 22.89708 88.48242 1973 ft 200 kts 213°
2026-04-27 07:48 22.88472 88.47610 1976 ft 200 kts 197°
2026-04-27 07:48 22.87113 88.47296 1988 ft 200 kts 188°
2026-04-27 07:48 22.85730 88.47158 1994 ft 199 kts 187°
2026-04-27 07:49 22.84355 88.46998 1989 ft 197 kts 187°
2026-04-27 07:49 22.83074 88.46848 2025 ft 173 kts 187°
2026-04-27 07:49 22.81947 88.46716 1991 ft 153 kts 188°
2026-04-27 07:49 22.80906 88.46593 1972 ft 150 kts 188°
2026-04-27 07:50 22.79864 88.46470 1977 ft 151 kts 188°
2026-04-27 07:50 22.78820 88.46347 2000 ft 151 kts 188°
2026-04-27 07:50 22.77784 88.46226 2002 ft 149 kts 187°
2026-04-27 07:50 22.76757 88.46105 1904 ft 148 kts 188°
2026-04-27 07:51 22.75719 88.45982 1749 ft 155 kts 187°
2026-04-27 07:51 22.74990 88.45897 1642 ft 161 kts 186°
2026-04-27 07:51 22.73843 88.45762 1405 ft 166 kts 185°
2026-04-27 07:51 22.72687 88.45627 1220 ft 172 kts 184°
2026-04-27 07:52 22.71487 88.45508 979 ft 171 kts 186°
2026-04-27 07:52 22.70355 88.45406 716 ft 168 kts 185°
2026-04-27 07:52 22.69231 88.45251 538 ft 159 kts 188°
2026-04-27 07:52 22.68145 88.45095 280 ft 156 kts 182°
2026-04-27 07:53 22.67090 88.44967 64 ft 147 kts 183°
2026-04-27 07:53 22.66181 88.44873 33 ft 124 kts 185°
2026-04-27 07:53 22.65479 88.44786 34 ft 76 kts 185°
2026-04-27 07:53 22.65203 88.44752 33 ft 16 kts 186°
2026-04-27 07:54 22.65080 88.44732 31 ft 20 kts 189°
2026-04-27 07:54 22.64973 88.44706 30 ft 17 kts 205°
2026-04-27 07:54 22.64859 88.44632 31 ft 21 kts 213°
2026-04-27 07:54 22.64736 88.44542 31 ft 22 kts 215°
2026-04-27 07:55 22.64657 88.44438 33 ft 17 kts 267°
2026-04-27 07:55 22.64703 88.44319 34 ft 18 kts 299°
2026-04-27 07:55 22.64722 88.44274 34 ft 6 kts 293°
2026-04-27 07:55 22.64733 88.44250 34 ft 1 kts 302°
2026-04-27 07:56 22.64742 88.44239 34 ft 4 kts 316°
2026-04-27 07:56 22.64778 88.44189 34 ft 6 kts 285°
2026-04-27 07:56 22.64784 88.44149 34 ft 3 kts 277°
2026-04-27 07:56 22.64785 88.44138 34 ft 0 kts 277°